Regional Weather Roundup
Issued by NWS

Home | Current Version | Previous Version | Graphics & Text | Print | Product List | Glossary On
Versions: 1 2 3 4 5 6 7 8 9 10 11 12 13 14 15 16 17 18 19 20 21 22 23 24 25 26 27 28 29 30 31 32 33 34 35 36 37 38 39 40 41 42 43 44 45 46 47 48 49 50
000
ASUS43 KMKX 040359
RWRWI

WISCONSIN REGIONAL WEATHER ROUNDUP
NATIONAL WEATHER SERVICE MILWAUKEE/SULLIVAN WI
1000 PM CST TUE MAR 03 2015

NOTE: "FAIR" INDICATES FEW OR NO CLOUDS BELOW 12,000 FEET WITH NO
SIGNIFICANT WEATHER AND/OR OBSTRUCTIONS TO VISIBILITY.

WIZ001-002-006>008-014>016-023>028-040500-
NORTHWEST WISCONSIN

CITY           SKY/WX    TMP DP  RH WIND       PRES   REMARKS
SUPERIOR ARPT  CLEAR      9  -4  56 W16G23    29.89R WCI  -8
ASHLAND        MOCLDY    11   1  64 W14G21    29.83R WCI  -5
HAYWARD        PTCLDY    11  -2  56 NW9G16    29.83R WCI  -2
SIREN          CLEAR     11  -1  59 W14G26    29.90R WCI  -5
CUMBERLAND     PTCLDY    10   1  67 W16G22    29.86R WCI  -7
RICE LAKE      PTCLDY    13   3  64 W16G22    29.88R WCI  -3
CHETEK         PTCLDY    13   4  65 W10G17    29.87R WCI   0
LADYSMITH      CLEAR     16   6  65 W16       29.82R WCI   0
EAU CLAIRE     CLEAR     13   2  61 NW16G25   29.90R WCI  -3
MENOMONIE      CLEAR     14   3  60 W16G25    29.91R WCI  -2
NEW RICHMOND   PTCLDY    11   0  61 W20G26    29.94R WCI  -8
OSCEOLA        CLEAR     11   0  62 W14G24    29.98R WCI  -5
$$

WIZ003>005-009-010-017-018-040500-
NORTH CENTRAL WISCONSIN

CITY           SKY/WX    TMP DP  RH WIND       PRES   REMARKS
MANITOWISH WTR PTCLDY    12   4  70 W15       29.71R WCI  -4
ARBOR VITAE    PTCLDY    17   5  61 NW14G22   29.72R WCI   3
WOODRUFF       PTCLDY    17   5  61 NW14G22   29.72R WCI   3
RHINELANDER    CLEAR     16   4  59 W13G24    29.72R WCI   2
EAGLE RIVER    PTCLDY    15   5  63 W10G18    29.68R WCI   3
LAND O LAKES   FLURRIES  17  10  74 W8        29.68R WCI   7
PHILLIPS       CLEAR     14   3  61 NW14G26   29.75R WCI  -1
TOMAHAWK       CLEAR     17   7  64 W10       29.73R WCI   5
MEDFORD        FAIR      17   5  61 W15G21    29.76R WCI   2
MERRILL        CLEAR     20   7  56 NW20      29.74R WCI   5
$$

WIZ029-030-035-036-043>047-040500-
CENTRAL WISCONSIN

CITY           SKY/WX    TMP DP  RH WIND       PRES   REMARKS
WAUSAU         CLEAR     20   5  52 NW13G26   29.75R WCI   7
MOSINEE        CLEAR     19   9  63 W16G23    29.77R WCI   5
MARSHFIELD     PTCLDY    19   8  62 NW17G24   29.80R WCI   4
STEVENS POINT  CLEAR     21   8  57 W13G26    29.78R WCI   9
WAUPACA        PTCLDY    28  14  55 W13G20    29.77R WCI  18
WAUTOMA        NOT AVBL
WISC RAPIDS    PTCLDY    23  10  57 W14       29.82R WCI  11
CAMP DOUGLAS   NOT AVBL
$$

WIZ011>013-019>022-031-037>040-048>050-040500-
NORTHEAST WISCONSIN

CITY           SKY/WX    TMP DP  RH WIND       PRES   REMARKS
ANTIGO         MOCLDY    19  13  75 NW14      29.71R WCI   6
SHAWANO        CLEAR     28  17  63 W8        29.73S WCI  20
OCONTO         MOCLDY    24  19  79 W6        29.72R WCI  17
STURGEON BAY   CLEAR     25  18  74 W10       29.73R WCI  15
GREEN BAY      PTCLDY    27  17  66 W13       29.75R WCI  16
MANITOWOC      NOT AVBL
APPLETON       PTCLDY    27  14  59 W15       29.76R WCI  15
CLINTONVILLE   MOCLDY    28  18  64 W12       29.74R WCI  18
OSHKOSH        CLOUDY    29  18  63 W6        29.76R WCI  23
$$

WIZ032>034-041-042-053>061-040500-
SOUTHWEST WISCONSIN

CITY           SKY/WX    TMP DP  RH WIND       PRES   REMARKS
LA CROSSE      CLEAR     18   8  65 NW17G23   29.93R WCI   3
SPARTA         CLEAR     21  12  68 W14G20    29.87R WCI   8
VIROQUA        CLEAR     18  11  75 NW20G28   29.85R WCI   1
BOSCOBEL       PTCLDY    23  13  65 W10G20    29.92R WCI  12
PRAIRIE DU CHI PTCLDY    19  10  66 NW17      29.93R WCI   4
PLATTEVILLE    MOCLDY    23  18  81 W17       29.87R WCI   9
$$

WIZ056-057-062-063-064-067-068-040500-
SOUTH CENTRAL WISCONSIN

CITY           SKY/WX    TMP DP  RH WIND       PRES   REMARKS
REEDSBURG      CLOUDY    28  18  68 NW16G22   29.81R WCI  15
BARABOO/DELLS  CLOUDY    28  17  65 W8        29.80R WCI  20
LONE ROCK      CLOUDY    28  18  66 W15       29.86R WCI  16
MINERAL POINT  MOCLDY    28  23  80 W13       29.82R WCI  18
MADISON        CLOUDY    30  21  69 W7        29.82R WCI  23
MIDDLETON      CLOUDY    31  19  61 W12G21    29.82R WCI  21
WATERTOWN      CLOUDY    29  23  78 W9G16     29.80R WCI  21
MONROE         CLOUDY    30  25  80 W17       29.83R WCI  18
JANESVILLE     CLOUDY    32  25  74 W7        29.83R WCI  26
$$

WIZ051-052-058>065-066-070>072-040500-
SOUTHEAST WISCONSIN

CITY           SKY/WX    TMP DP  RH WIND       PRES   REMARKS
MILWAUKEE      CLOUDY    30  22  72 SW8       29.82R WCI  22
WAUKESHA       CLOUDY    28  23  80 W10       29.81R WCI  19
MILWAUKEE/TIMM CLOUDY    30  23  74 SW8       29.81R WCI  23
RACINE         CLOUDY    30  22  72 SW6       29.84R WCI  24
BURLINGTON     CLOUDY    27  22  82 SW7       29.82R WCI  20
KENOSHA        CLOUDY    29  23  78 W8        29.82R WCI  21
FOND DU LAC    CLOUDY    29  20  69 W16G24    29.78R WCI  17
SHEBOYGAN      CLOUDY    30  20  66 W13       29.77R WCI  20
WEST BEND      CLOUDY    30  21  69 W12       29.78R WCI  21
JUNEAU         CLOUDY    29  23  78 W6        29.80R WCI  23
$$

LSZ147-162-040500-
LAKE SUPERIOR

STATION/POSITION TIME  TEMP    WIND        PRES    WAVE
                       AIR SEA DIR/SP/G            HT/PER
                 (UTC) (F)     (DEG/KT/KT) (MB)    (FT/S)
DEVILS ISLAND    0300   16     300/ 28/ 34 1009.7R
PORT WING        0340   13     280/ 21/ 29 1010.8R
SAXON HARBOR     0300   18     280/ 11/ 21 1008.8R
$$

LMZ867-665-643>646-040500-
LAKE MICHIGAN

STATION/POSITION TIME  TEMP    WIND        PRES    WAVE
                       AIR SEA DIR/SP/G            HT/PER
                 (UTC) (F)     (DEG/KT/KT) (MB)    (FT/S)
NORTHPORT PIER   0301   27     260/  4/ 13 1005.1R
SISTER BAY       0213   24     250/ 10/ 11   N/A
KEWAUNEE LAKESHO 0300   29     260/  9/ 17 1005.9R
SHEBOYGAN LAKESH 0300   31     270/  6/  9 1008.8R
PORT WASHINGTON  0300   31     280/  2/  4 1008.8
MILWAUKEE LAKESH 0300   31     260/  7/ 11   N/A
KENOSHA   LAKESH 0300   31     270/  6/  9 1009.5R
$$

TC  - TEMPERATURE IN CELSIUS
VSB - VISIBILITY IN STATUTE MILES
WCI - WIND CHILL INDEX
HX  - HEAT INDEX



USA.gov is the U.S. government's official web portal to all federal, state and local government web resources and services.